Regional Weather Roundup
Issued by NWS

Home | Current Version | Previous Version | Graphics & Text | Print | Product List | Glossary On
Versions: 1 2 3 4 5 6 7 8 9 10 11 12 13 14 15 16 17 18 19 20 21 22 23 24 25 26 27 28 29 30 31 32 33 34 35 36 37 38 39 40 41 42 43 44 45 46 47 48 49 50
000
ASUS43 KOAX 271502
RWRNE

WEATHER ROUNDUP FOR NEBRASKA
NATIONAL WEATHER SERVICE OMAHA NE
1000 AM CDT THU JUL 27 2017

NOTES: SATELLITE DATA IS BEING USED TO AUGMENT CLOUD COVER ABOVE
       12000 FEET.
       "FAIR" INDICATES FEW OR NO CLOUDS BELOW 12,000 FEET WITH NO
       SIGNIFICANT WEATHER AND/OR OBSTRUCTIONS TO VISIBILITY.


NEZ001>004-019>022-054>056-271600-
NEBRASKA PANHANDLE

CITY           SKY/WX    TMP DP  RH WIND       PRES   REMARKS
SCOTTSBLUFF    CLOUDY    71  65  81 E13       30.20R
ALLIANCE       CLOUDY    70  60  70 SE16      30.21S
CHADRON        CLOUDY    73  63  70 SE14      30.15S
GORDON         DRIZZLE   68  61  77 CALM      30.21R
KIMBALL        CLOUDY    70  64  82 S14       30.26R
SIDNEY         CLOUDY    71  65  81 SE13      30.24S
$$

NEZ057>060-069>072-079>082-271600-
SOUTHWEST NEBRASKA

CITY           SKY/WX    TMP DP  RH WIND       PRES   REMARKS
NORTH PLATTE   CLOUDY    71  60  68 SE5       30.19R
IMPERIAL       CLOUDY    71  64  78 SE12      30.20R
LEXINGTON      CLOUDY    70  63  77 E6        30.17S
MCCOOK         CLOUDY    73  65  75 E10       30.17R
OGALLALA       CLOUDY    73  65  76 E8        30.20S
$$

NEZ005>010-023>029-035>040-094-271600-
NORTH CENTRAL NEBRASKA

CITY           SKY/WX    TMP DP  RH WIND       PRES   REMARKS
VALENTINE      CLOUDY    75  55  49 S9        30.19R
AINSWORTH      CLOUDY    73  61  65 SE6       30.19S
BROKEN BOW     SUNNY     73  61  65 E12       30.17S
O`NEILL        SUNNY     73  62  70 E7        30.17S
ORD            SUNNY     74  60  61 NE6       30.14S
THEDFORD       SUNNY     73  59  62 SE6       30.21S
$$

NEZ041-046>049-061>064-073>077-083>087-271600-
SOUTH CENTRAL NEBRASKA

CITY           SKY/WX    TMP DP  RH WIND       PRES   REMARKS
GRAND ISLAND   MOSUNNY   72  65  78 E6        30.14R
AURORA         CLOUDY    73  66  79 NE8       30.12F
HASTINGS       MOSUNNY   73  63  70 NE9       30.13F
HEBRON         MOSUNNY   76  67  73 NE9       30.08S
HOLDREGE       CLOUDY    69  64  84 NE7       30.15S
KEARNEY        MOSUNNY   72  63  73 NE9       30.15S
YORK           SUNNY     73  64  73 NE12      30.11F
$$

NEZ011>018-030>034-042>045-271600-
NORTHEAST NEBRASKA

CITY           SKY/WX    TMP DP  RH WIND       PRES   REMARKS
NORFOLK        SUNNY     75  59  57 NE8       30.12S
ALBION         SUNNY     74  64  71 E6        30.15R
BLAIR          RAIN      73  66  79 N8        30.08S
COLUMBUS       SUNNY     75  65  70 NE10      30.11S
FREMONT        SUNNY     74  64  70 CALM      30.10S
TEKAMAH        SUNNY     75  65  70 N7        30.07F
WAYNE          SUNNY     73  69  86 NE6       30.12S
$$

NEZ050>053-065>068-078-088>093-271600-
SOUTHEAST NEBRASKA

CITY           SKY/WX    TMP DP  RH WIND       PRES   REMARKS
LINCOLN        SUNNY     76  65  68 NE10      30.08R
OMAHA EPPLEY   MOSUNNY   74  67  78 N9        30.06S
BEATRICE       MOSUNNY   76  69  77 NE9       30.07S
FALLS CITY     MOSUNNY   78  71  79 N6        30.02S
NEBRASKA CITY  MOSUNNY   74  73  95 NE8       30.06R
PLATTSMOUTH    SUNNY     74  67  77 N6        30.06S
$$

NEZ044-045-051>053-067-271600-
OMAHA AREA

CITY           SKY/WX    TMP DP  RH WIND       PRES   REMARKS
OMAHA EPPLEY   MOSUNNY   74  67  78 N9        30.06S
BLAIR          RAIN      73  66  79 N8        30.08S
FREMONT        SUNNY     74  64  70 CALM      30.10S
MILLARD        SUNNY     77  67  72 NE5       30.07S
OFFUTT AFB     SUNNY     76  66  72 NE7       30.05S
PLATTSMOUTH    SUNNY     74  67  77 N6        30.06S
WAHOO          FAIR      74  66  75 N9        30.08S
$$




USA.gov is the U.S. government's official web portal to all federal, state and local government web resources and services.